GW6951 Weather Reports


time (UTC)temp
F
wind
direction
speed
knots
gust
knots
rain 1hr
in
rain 24hr
in
rain mn
in
humidity
%
barometer
mb
20260503213430 74 139 0.9 1.7 0.00 0.00 0.00 30 1016.6
20260503212926 75 131 0.0 0.9 0.00 0.00 0.00 33 1016.4
20260503212423 75 112 1.7 1.7 0.00 0.00 0.00 30 1016.8
20260503211921 74 120 0.9 0.9 0.00 0.00 0.00 31 1016.9
20260503211417 73 165 0.9 0.9 0.00 0.00 0.00 29 1016.9
20260503210913 73 138 0.0 0.9 0.00 0.00 0.00 29 1016.9
20260503210410 73 146 0.0 1.7 0.00 0.00 0.00 30 1016.9
20260503205910 73 130 0.0 2.6 0.00 0.00 0.00 29 1017.0
20260503205408 74 148 0.0 1.7 0.00 0.00 0.00 31 1016.8
20260503204904 74 125 0.0 0.9 0.00 0.00 0.00 32 1016.8
20260503204401 73 33 1.7 2.6 0.00 0.00 0.00 28 1017.1
20260503203858 73 132 0.9 1.7 0.00 0.00 0.00 31 1017.1
20260503203355 73 119 0.9 0.9 0.00 0.00 0.00 30 1017.2
20260503202852 73 134 0.9 0.9 0.00 0.00 0.00 29 1017.4
20260503202350 74 119 0.9 1.7 0.00 0.00 0.00 29 1017.6
20260503201849 73 128 0.0 1.7 0.00 0.00 0.00 31 1017.4
20260503201345 73 130 0.0 0.9 0.00 0.00 0.00 33 1017.6
20260503200843 74 112 0.9 1.7 0.00 0.00 0.00 31 1017.5
20260503200338 74 161 0.9 1.7 0.00 0.00 0.00 28 1017.8
20260503195836 74 134 0.9 0.9 0.00 0.00 0.00 28 1018.0
20260503195332 74 149 0.0 0.9 0.00 0.00 0.00 27 1017.9
20260503194830 73 115 0.9 1.7 0.00 0.00 0.00 30 1017.9
20260503194325 73 126 0.9 1.7 0.00 0.00 0.00 29 1017.9
20260503193822 72 132 0.9 2.6 0.00 0.00 0.00 29 1018.0
20260503193318 71 162 1.7 2.6 0.00 0.00 0.00 28 1018.2
20260503192814 71 267 2.6 2.6 0.00 0.00 0.00 27 1018.3
20260503192309 73 35 2.6 6.1 0.00 0.00 0.00 25 1018.3
20260503191806 73 141 0.0 0.9 0.00 0.00 0.00 28 1018.4
20260503191303 73 153 0.0 2.6 0.00 0.00 0.00 29 1018.5
20260503190800 71 143 0.0 5.2 0.00 0.00 0.00 30 1018.3
20260503190257 71 120 0.9 1.7 0.00 0.00 0.00 29 1018.6
20260503185754 72 40 0.0 0.9 0.00 0.00 0.00 26 1018.7
20260503185249 72 125 0.9 2.6 0.00 0.00 0.00 27 1018.7
20260503184744 73 95 0.9 3.5 0.00 0.00 0.00 28 1018.6
20260503184241 72 148 0.0 1.7 0.00 0.00 0.00 27 1018.7
20260503183737 72 127 0.0 0.9 0.00 0.00 0.00 31 1018.9
20260503183235 70 162 0.0 1.7 0.00 0.00 0.00 28 1018.7
20260503182732 70 160 0.9 2.6 0.00 0.00 0.00 28 1019.1
20260503182231 68 71 0.9 2.6 0.00 0.00 0.00 30 1019.2
20260503181727 69 120 1.7 2.6 0.00 0.00 0.00 27 1019.2
20260503181224 69 349 2.6 3.5 0.00 0.00 0.00 31 1019.3
20260503180720 68 121 0.9 2.6 0.00 0.00 0.00 28 1019.3
20260503180219 68 152 0.9 2.6 0.00 0.00 0.00 27 1019.4
20260503175715 68 336 1.7 2.6 0.00 0.00 0.00 30 1019.5
20260503175214 68 117 0.9 3.5 0.00 0.00 0.00 26 1019.4
20260503174709 69 94 0.0 1.7 0.00 0.00 0.00 28 1019.3
20260503174207 67 118 0.0 0.9 0.00 0.00 0.00 33 1019.4
20260503173708 66 161 1.7 1.7 0.00 0.00 0.00 29 1019.7
20260503173204 66 2 3.5 7.8 0.00 0.00 0.00 31 1019.9
20260503172701 65 189 1.7 3.5 0.00 0.00 0.00 29 1019.7
20260503172158 65 39 1.7 7.0 0.00 0.00 0.00 28 1020.0
20260503171654 65 52 1.7 2.6 0.00 0.00 0.00 31 1020.1
20260503171152 65 294 0.9 6.1 0.00 0.00 0.00 28 1020.3
20260503170648 65 253 3.5 7.8 0.00 0.00 0.00 29 1020.1
20260503170145 64 117 0.9 5.2 0.00 0.00 0.00 28 1020.4
20260503160107 62 45 0.9 2.6 0.00 0.00 0.00 31 1021.1
20260503150537 59 88 0.9 1.7 0.00 0.00 0.00 33 1021.4
20260503130927 51 38 1.7 5.2 0.00 0.00 0.00 52 1021.2
20260503130425 51 10 0.9 3.5 0.00 0.00 0.00 53 1021.3
20260503110326 39 160 1.7 1.7 0.00 0.00 0.00 83 1020.5
20260503100252 39 136 0.9 1.7 0.00 0.00 0.00 85 1019.7
20260503090218 40 160 0.9 1.7 0.00 0.00 0.00 86 1019.3
20260503081151 39 110 0.0 1.7 0.00 0.00 0.00 88 1018.6
20260503080646 39 115 0.0 0.9 0.00 0.00 0.00 87 1018.7
20260503080144 39 117 0.9 0.9 0.00 0.00 0.00 86 1018.9
20260503072620 41 113 0.0 0.0 0.00 0.00 0.00 81 1018.4
20260503072117 41 167 1.7 1.7 0.00 0.00 0.00 80 1018.5
20260503071614 41 165 0.9 1.7 0.00 0.00 0.00 82 1018.2
20260503071111 41 135 0.0 0.0 0.00 0.00 0.00 82 1018.1
20260503070608 41 184 0.9 1.7 0.00 0.00 0.00 81 1018.4
20260503070106 40 146 0.9 1.7 0.00 0.00 0.00 84 1018.3
20260503055032 43 123 0.0 0.9 0.00 0.00 0.00 75 1018.1
20260503054528 44 122 0.0 0.9 0.00 0.00 0.00 75 1017.9
20260503054025 44 141 0.0 0.9 0.00 0.00 0.00 73 1017.9
20260503053523 44 138 0.0 0.9 0.00 0.00 0.00 70 1017.9
20260503053020 44 144 0.9 0.9 0.00 0.00 0.00 72 1018.0
20260503052517 43 130 0.0 0.9 0.00 0.00 0.00 72 1018.1
20260503052013 45 138 0.9 1.7 0.00 0.00 0.00 71 1018.1
20260503051509 44 173 1.7 2.6 0.00 0.00 0.00 68 1017.9
20260503051007 44 156 0.9 1.7 0.00 0.00 0.00 73 1018.0
20260503050502 43 162 1.7 1.7 0.00 0.00 0.00 71 1017.9
20260503050000 44 158 0.9 1.7 0.00 0.00 0.00 70 1017.9
20260503045457 44 150 0.9 0.9 0.00 0.00 0.00 73 1018.0
20260503044954 44 115 0.0 0.9 0.00 0.00 0.00 71 1017.8
20260503044451 44 156 0.0 0.9 0.00 0.00 0.00 68 1018.0
20260503043948 43 113 0.0 0.9 0.00 0.00 0.00 73 1017.9
20260503043444 43 111 0.0 0.9 0.00 0.00 0.00 75 1017.7
20260503042941 44 115 0.0 0.9 0.00 0.00 0.00 73 1017.6
20260503042438 44 119 0.0 0.0 0.00 0.00 0.00 73 1017.5
20260503041935 44 119 0.0 0.0 0.00 0.00 0.00 70 1017.7
20260503041431 43 119 0.0 0.0 0.00 0.00 0.00 74 1017.6
20260503040928 44 119 0.0 0.9 0.00 0.00 0.00 73 1017.5
20260503040426 45 141 0.0 0.9 0.00 0.00 0.00 68 1017.4
20260503035923 45 159 0.9 0.9 0.00 0.00 0.00 66 1017.3
20260503035420 44 148 0.0 0.9 0.00 0.00 0.00 69 1017.2
20260503034917 46 148 0.0 0.9 0.00 0.00 0.00 68 1017.2
20260503034415 45 149 0.0 0.9 0.00 0.00 0.00 65 1017.2
20260503033912 45 145 0.0 0.9 0.00 0.00 0.00 65 1017.2
20260503033409 46 145 0.0 0.9 0.00 0.00 0.00 67 1017.0
20260503032907 46 144 0.0 0.0 0.00 0.00 0.00 65 1017.1
20260503032406 46 145 0.0 0.0 0.00 0.00 0.00 67 1017.1
20260503031903 46 128 0.0 0.9 0.00 0.00 0.00 67 1017.2
20260503031400 46 140 0.0 0.9 0.00 0.00 0.00 69 1016.9
20260503030856 46 134 0.0 1.7 0.00 0.00 0.00 67 1016.9
20260503030353 47 146 0.0 0.0 0.00 0.00 0.00 65 1016.9
20260503025849 46 31 2.6 2.6 0.00 0.00 0.00 66 1016.8
20260503025347 46 84 0.9 0.9 0.00 0.00 0.00 66 1016.8
20260503024844 48 144 0.0 0.9 0.00 0.00 0.00 63 1016.6
20260503024341 48 147 0.0 0.9 0.00 0.00 0.00 60 1016.6
20260503023837 48 149 0.0 0.9 0.00 0.00 0.00 58 1016.7
20260503023335 48 148 0.0 0.9 0.00 0.00 0.00 62 1016.7
20260503022831 48 148 0.0 0.9 0.00 0.00 0.00 62 1016.5
20260503022326 49 122 0.0 0.9 0.00 0.00 0.00 59 1016.5
20260503021823 49 121 0.0 0.9 0.00 0.00 0.00 58 1016.7
20260503021319 50 138 0.0 0.0 0.00 0.00 0.00 58 1016.6
20260503020817 50 95 0.9 1.7 0.00 0.00 0.00 57 1016.6
20260503020314 50 148 0.0 0.9 0.00 0.00 0.00 56 1016.3
20260503015810 50 137 0.0 0.9 0.00 0.00 0.00 55 1016.6
20260503015308 51 133 0.0 0.9 0.00 0.00 0.00 53 1016.3
20260503014803 51 118 0.0 0.9 0.00 0.00 0.00 52 1016.2
20260503014301 52 98 0.9 0.9 0.00 0.00 0.00 51 1016.0
20260503013758 53 105 0.0 0.9 0.00 0.00 0.00 47 1015.8
20260503013255 53 65 0.0 0.9 0.00 0.00 0.00 48 1015.8
20260503012753 54 150 0.0 0.9 0.00 0.00 0.00 44 1015.9
20260503012250 55 149 0.9 2.6 0.00 0.00 0.00 42 1015.6
20260503011747 55 148 0.0 0.9 0.00 0.00 0.00 42 1015.6
20260503011244 57 231 1.7 2.6 0.00 0.00 0.00 37 1015.5
20260503010740 57 96 0.9 2.6 0.00 0.00 0.00 37 1015.5
20260503010237 57 92 0.9 3.5 0.00 0.00 0.00 36 1015.3
20260503005734 57 101 0.0 1.7 0.00 0.00 0.00 39 1015.4
20260503005231 57 125 0.0 0.0 0.00 0.00 0.00 36 1015.1
20260503004727 58 93 1.7 1.7 0.00 0.00 0.00 34 1015.0
20260503004226 58 22 4.3 6.1 0.00 0.00 0.00 34 1015.0
20260503003723 57 110 0.0 0.9 0.00 0.00 0.00 35 1015.2
20260503003220 58 106 0.0 1.7 0.00 0.00 0.00 34 1014.6
20260503002716 59 114 0.0 2.6 0.00 0.00 0.00 33 1014.7
20260503002213 59 340 3.5 6.1 0.00 0.00 0.00 32 1014.6
20260503001709 59 57 1.7 5.2 0.00 0.00 0.00 33 1014.3
20260503001206 60 21 3.5 7.8 0.00 0.00 0.00 31 1014.3
20260503000704 59 44 7.0 9.6 0.00 0.00 0.00 31 1014.2
20260503000203 59 108 1.7 7.0 0.00 0.00 0.00 32 1014.1
20260502235658 59 120 1.7 3.5 0.00 0.00 0.00 32 1014.1
20260502235155 60 355 2.6 6.1 0.00 0.00 0.00 33 1014.2
20260502234651 60 62 1.7 5.2 0.00 0.00 0.00 33 1014.1
20260502234149 60 94 1.7 2.6 0.00 0.00 0.00 32 1014.0
20260502233645 60 66 0.9 2.6 0.00 0.00 0.00 32 1013.9
20260502233142 60 110 0.9 5.2 0.00 0.00 0.00 31 1013.9
20260502232637 60 359 2.6 6.1 0.00 0.00 0.00 30 1013.6
20260502232135 61 77 1.7 6.1 0.00 0.00 0.00 30 1013.7
20260502231631 61 53 2.6 3.5 0.00 0.00 0.00 30 1013.5
20260502231130 61 357 1.7 7.8 0.00 0.00 0.00 30 1013.7
20260502230628 62 279 4.3 7.8 0.00 0.00 0.00 29 1013.5
20260502230126 62 35 1.7 9.6 0.00 0.00 0.00 30 1013.6
20260502225621 64 356 3.5 9.6 0.00 0.00 0.00 28 1013.5
20260502225118 63 56 1.7 5.2 0.00 0.00 0.00 30 1013.5
20260502224614 64 69 2.6 6.1 0.00 0.00 0.00 29 1013.5
20260502224111 64 3 3.5 3.5 0.00 0.00 0.00 29 1013.5
20260502223609 64 139 0.9 6.1 0.00 0.00 0.00 31 1013.4
20260502223108 63 351 3.5 6.1 0.00 0.00 0.00 29 1013.4
20260502222604 63 10 5.2 8.7 0.00 0.00 0.00 29 1013.4
20260502222101 63 37 4.3 6.1 0.00 0.00 0.00 31 1013.4
20260502221556 64 58 1.7 7.0 0.00 0.00 0.00 29 1013.2
20260502221054 64 36 4.3 9.6 0.00 0.00 0.00 29 1013.2
20260502220549 64 359 1.7 7.0 0.00 0.00 0.00 32 1013.0
20260502220046 64 45 2.6 8.7 0.00 0.00 0.00 30 1012.8
20260502215544 62 317 5.2 7.0 0.00 0.00 0.00 29 1012.9
20260502215040 63 72 2.6 7.0 0.00 0.00 0.00 32 1012.8
20260502214537 64 44 1.7 2.6 0.00 0.00 0.00 32 1012.6
20260502214035 66 25 2.6 7.8 0.00 0.00 0.00 29 1012.4